Location: Góry Miechowskie
(50.3599°N, 20.1803°E)
Time: 21:59:07
(UTC+00:00)

Cosmos 1869 - Pass Details

Date: 18 September 2024
Orbit: 484 x 518 km, 82.5° (Epoch: 06 October)

Event Time Altitude Azimuth Distance (km) Brightness Sun altitude
Exits shadow 02:09:47 14° 321° (NW) 1,522 5.5 -20.5°
Drops below altitude 10° 02:10:44 10° 334° (NNW) 1,732 5.9 -20.4°
Sets 02:13:31 0° 357° (N) 2,614 7.1 -20.0°
